GEFSSGP_500_meanwind_216.txt.gz
Wind_Speed
18 18 18 17 18 15 13 12 13 13 13 13 12 11 10 10 9 9 9 9 8 8 8 8 9 9 10 11 11 11 11 12 12 14 14 14 14 14 13 13 13 13 13 13 13 13 13 13 13
18 18 17 18 17 14 13 13 13 13 13 12 11 11 10 10 10 9 9 9 9 9 8 9 9 9 10 12 12 11 12 12 12 13 14 14 14 13 13 13 14 13 13 13 14 14 13 13 12
18 18 18 19 16 14 13 13 13 13 13 12 12 11 11 10 10 10 9 10 9 8 8 9 9 9 10 11 12 12 12 13 13 13 14 13 14 13 13 13 13 13 13 13 14 14 14 13 12
18 18 19 18 16 16 15 15 14 15 14 13 12 12 12 11 10 10 10 10 9 8 8 9 9 9 10 11 13 13 13 13 13 13 14 14 14 14 14 14 13 13 13 13 14 14 14 13 13
18 20 19 17 17 17 17 16 15 16 15 14 13 13 13 12 11 10 11 10 10 9 8 9 9 9 10 11 12 13 13 13 13 13 13 13 14 15 14 14 14 13 14 14 14 14 13 13 13
18 18 16 17 18 18 18 17 17 17 16 15 14 14 13 12 11 11 11 10 9 9 9 9 9 9 10 10 11 12 12 13 13 13 12 12 13 14 14 14 13 13 14 13 14 14 13 12 11
17 17 16 17 18 19 19 18 18 18 17 16 15 15 14 13 12 11 11 10 9 9 9 9 9 9 9 10 10 11 11 12 12 12 12 12 12 12 13 13 13 13 12 12 12 12 12 11 10
15 16 16 17 18 19 19 19 19 18 17 16 16 16 15 14 13 12 11 10 9 9 9 9 8 9 9 9 9 10 10 11 11 11 11 11 12 12 12 12 12 11 11 11 11 10 10 10 9
15 15 14 16 18 18 19 19 19 19 18 17 17 16 15 14 13 12 11 11 10 9 9 9 8 8 8 8 9 9 9 10 9 9 10 10 10 10 11 11 11 11 10 10 10 10 9 9 8
14 13 13 15 17 18 19 19 19 19 19 18 17 16 15 14 13 12 12 11 10 10 9 8 8 8 7 8 8 8 7 8 8 8 8 8 9 9 9 10 10 10 9 9 9 8 8 7 7
12 11 13 14 15 17 18 19 18 19 18 17 17 17 16 14 13 12 12 11 11 10 9 8 8 8 8 7 7 7 7 7 6 7 7 8 8 7 8 8 8 8 7 7 7 7 7 6 5
11 11 12 13 14 16 17 18 18 18 18 17 17 17 17 15 14 14 13 12 10 10 9 8 8 8 7 7 6 6 6 5 5 6 6 6 6 6 6 7 6 6 5 5 5 5 5 4 4
10 10 11 11 13 14 16 17 18 18 18 17 16 16 16 16 15 14 13 12 11 10 9 9 8 7 7 6 6 6 5 5 4 4 5 5 5 5 5 5 5 5 4 4 4 3 3 3 2
8 8 9 10 11 12 14 16 17 17 17 16 16 16 16 16 15 14 13 12 11 10 9 9 8 7 7 7 6 6 5 5 4 4 4 4 4 4 4 4 4 3 3 3 3 3 2 1 0
6 6 7 8 9 11 12 14 15 16 16 15 15 15 15 15 14 13 13 12 11 10 9 9 8 8 7 7 6 5 5 5 4 4 3 3 3 4 4 3 3 3 3 3 2 2 1 1 1
4 4 5 5 7 9 11 12 12 13 14 15 14 14 14 14 13 12 12 12 11 10 9 9 8 8 8 7 6 6 5 4 4 3 3 2 2 2 3 3 3 3 3 3 3 2 2 3 2
1 2 2 3 5 6 8 9 10 11 12 13 14 13 13 13 13 12 11 11 11 10 10 9 9 9 8 7 6 6 5 4 4 3 2 2 1 1 2 2 2 3 3 3 4 4 4 4 4
4 3 2 1 3 4 6 7 8 9 10 12 12 13 12 12 12 12 11 11 11 10 10 10 9 9 8 7 6 6 5 4 4 3 2 1 1 0 1 2 2 3 3 4 4 4 4 4 5
7 5 3 1 1 2 4 5 6 7 8 10 11 11 12 12 12 11 11 11 11 10 10 10 10 9 9 7 7 6 5 5 3 3 2 2 1 1 1 2 2 3 4 4 5 5 5 5 6
8 6 4 3 1 1 2 3 3 5 6 7 9 10 11 11 11 11 10 11 11 11 11 10 10 10 9 8 7 6 5 5 4 3 3 2 2 2 2 2 3 4 4 5 6 6 6 7 7
10 8 7 4 3 2 0 2 2 3 4 5 7 9 9 9 10 10 10 10 11 11 11 11 11 10 10 8 7 7 6 5 5 4 3 3 2 3 3 4 4 4 5 6 7 7 7 8 9
12 10 9 7 4 3 2 2 3 3 3 4 6 7 8 8 9 9 9 9 10 11 11 11 11 11 10 9 8 8 8 7 6 5 4 4 4 4 4 4 5 6 6 7 8 8 9 9 10
15 13 11 10 8 5 4 2 4 4 4 4 5 6 6 7 7 8 8 8 9 10 10 11 11 11 11 10 9 8 8 7 7 6 5 4 4 4 4 5 6 6 7 7 8 9 9 9 10
17 15 14 13 10 10 8 5 4 5 4 5 5 5 5 5 6 7 7 8 8 9 9 10 10 10 10 10 9 9 9 8 8 7 6 5 5 5 5 6 6 7 7 7 8 9 9 10 11
20 17 15 13 13 12 11 8 7 6 5 5 5 5 4 5 5 5 7 7 7 8 8 9 10 10 10 10 10 10 10 9 9 8 7 7 6 6 6 7 7 8 8 9 9 10 10 11 11
23 20 17 15 14 13 13 11 9 8 8 7 6 5 4 4 4 5 6 6 7 7 8 9 10 10 10 10 10 10 10 10 9 9 8 8 7 7 7 7 8 8 9 9 10 11 11 11 12
26 23 20 18 16 14 13 12 10 10 10 9 8 7 5 5 5 6 6 6 6 7 7 9 9 10 10 10 10 10 11 11 10 10 10 9 9 8 8 8 8 9 9 10 11 11 11 12 12
28 26 23 20 18 16 15 13 11 12 11 10 9 9 8 7 7 7 7 7 7 7 7 8 9 9 10 10 11 11 12 11 11 11 11 11 10 10 10 10 10 10 10 10 11 11 12 13 13
30 29 26 23 21 18 16 15 15 13 13 12 11 10 10 9 9 9 9 8 8 7 8 8 8 9 10 11 11 12 12 12 12 13 13 12 12 11 11 10 11 11 11 11 11 12 12 13 14
31 30 29 26 25 23 19 18 17 15 14 14 12 12 11 11 10 10 10 10 10 9 9 8 9 9 10 11 12 12 12 12 13 14 14 13 13 13 13 12 12 12 11 11 11 12 12 12 13

GEFSSGP_500_meanwind_222.txt.gz
Wind_Speed
19 19 19 20 19 13 8 8 8 7 7 6 6 5 5 5 5 5 6 6 7 7 8 9 8 7 6 6 6 6 6 6 7 8 10 10 11 11 12 12 12 12 12 12 12 12 12 12 12
19 18 22 22 15 10 10 9 8 8 7 7 7 6 5 5 5 5 6 6 7 8 9 9 8 7 6 6 6 6 6 7 8 9 10 10 11 12 12 11 12 13 13 13 13 12 12 12 12
21 22 24 16 10 10 10 10 9 8 8 8 8 7 6 6 6 6 6 7 7 8 9 9 8 7 6 6 7 7 7 7 8 8 9 11 12 12 12 12 12 12 13 13 13 12 12 11 11
22 26 20 12 11 12 12 11 10 9 9 9 9 9 8 8 8 7 7 7 8 8 9 9 8 8 7 7 7 7 7 7 8 8 10 11 12 12 12 12 12 12 12 12 12 12 11 11 11
26 22 15 12 13 13 13 12 12 11 11 11 10 9 10 9 9 8 8 8 8 9 9 9 9 8 7 7 7 7 7 7 8 9 9 10 11 12 12 12 12 12 12 12 13 12 11 11 10
23 16 12 13 13 13 14 13 13 13 13 12 11 11 11 11 10 9 8 8 8 9 8 9 9 8 8 7 7 7 7 7 8 9 10 10 10 11 12 12 12 12 12 12 12 11 11 10 9
18 14 12 12 13 14 14 14 14 14 13 13 13 12 12 12 11 10 9 9 8 8 8 8 9 8 8 7 7 7 7 7 8 9 9 9 10 11 12 12 12 12 11 11 11 10 10 9 9
15 12 9 11 12 13 14 14 14 14 14 14 13 12 12 12 12 11 10 9 8 8 8 8 8 8 7 7 7 7 7 7 8 8 9 9 9 10 10 11 11 11 11 11 10 10 9 9 8
13 10 8 9 11 12 13 14 15 15 15 15 14 13 13 13 13 12 11 10 9 8 8 8 8 7 7 7 7 6 6 7 7 8 8 8 9 9 9 9 10 10 9 9 9 9 9 8 7
8 7 6 8 10 12 13 14 15 15 16 16 15 15 14 14 13 12 11 11 10 9 8 7 7 7 7 7 7 6 6 6 6 7 7 7 8 8 9 9 9 8 8 8 8 8 8 7 6
6 6 7 9 11 12 14 14 15 15 16 16 16 15 15 15 14 14 12 11 10 9 9 8 8 7 7 6 6 6 6 6 6 6 6 6 7 7 7 7 7 7 7 7 7 6 6 5 5
5 6 7 9 11 12 13 13 14 15 16 16 16 16 16 15 15 14 13 12 11 10 9 8 8 7 7 6 5 5 5 5 5 5 5 5 5 5 5 5 6 5 6 5 5 5 4 4 4
5 6 8 9 11 12 12 13 14 15 16 16 16 17 17 17 16 16 15 13 12 11 10 9 8 7 7 6 5 5 5 5 4 4 4 4 3 4 4 4 4 4 4 4 3 3 3 2 2
4 5 7 9 10 10 11 13 14 14 15 16 16 16 16 16 16 15 15 14 13 12 11 9 8 7 7 7 6 5 4 4 4 3 3 3 2 2 2 3 3 2 2 2 2 2 1 1 1
4 4 7 8 9 10 10 13 13 14 15 15 16 16 16 16 16 15 15 14 14 13 12 10 9 8 7 7 6 5 4 4 3 3 3 2 2 1 1 1 1 1 1 0 0 0 1 2 2
3 5 7 8 8 8 9 10 12 12 14 15 15 16 16 15 15 15 15 15 14 13 13 11 10 8 7 7 6 6 5 4 3 3 2 2 1 1 0 0 1 1 1 1 1 2 2 3 4
0 1 4 7 8 7 7 8 10 11 12 14 15 15 15 15 16 15 15 15 14 14 13 12 10 9 8 7 7 6 6 5 4 3 2 1 1 1 1 1 1 1 2 2 3 3 4 4 5
2 1 3 6 6 5 4 6 8 10 11 12 14 15 15 14 14 15 14 14 14 14 13 12 11 9 8 7 6 6 6 6 5 4 3 2 2 2 2 2 3 3 3 4 4 4 5 6 6
6 5 5 6 7 3 3 5 8 9 11 11 12 13 14 13 12 13 14 14 14 14 14 13 12 11 9 8 7 7 6 6 6 5 4 3 3 3 3 3 4 5 5 5 5 6 7 7 7
8 6 5 7 7 4 4 5 7 9 10 10 11 11 12 13 12 12 13 13 14 14 14 13 13 12 11 9 8 8 7 7 7 6 6 5 4 4 4 4 4 5 6 6 7 7 8 8 8
10 10 9 8 7 5 5 6 7 9 10 9 9 10 11 12 12 12 12 12 13 14 13 13 13 13 12 11 10 9 9 8 7 7 7 6 5 5 5 6 6 6 6 7 7 8 8 9 9
11 11 11 9 9 7 7 8 8 10 9 9 9 10 11 11 11 11 11 11 12 12 13 13 14 14 13 11 10 10 9 9 8 8 8 7 7 6 6 6 6 7 7 7 8 8 9 10 10
13 12 11 10 10 9 9 9 8 9 8 7 8 9 10 10 9 10 10 11 11 11 12 13 13 13 13 12 12 11 10 9 9 9 8 8 8 8 7 7 7 8 8 8 8 9 10 10 11
15 13 12 12 12 13 11 9 10 10 9 8 7 7 8 9 9 9 10 10 10 10 11 12 13 14 13 13 13 12 11 10 9 9 9 8 8 8 8 8 9 9 9 9 10 10 10 11 11
17 15 12 12 13 12 10 10 13 12 11 10 8 7 8 8 9 9 9 9 10 10 11 12 13 14 13 13 13 13 12 11 10 10 10 10 9 9 9 10 10 10 10 10 11 11 11 11 12
19 17 15 14 13 12 10 12 11 13 13 10 10 8 8 8 8 9 8 9 9 10 11 12 12 13 13 13 13 13 12 12 11 11 11 11 11 11 11 11 10 11 11 11 11 11 12 12 13
20 20 18 17 15 15 13 14 14 13 12 11 10 10 10 9 8 8 9 9 9 10 11 11 12 13 14 14 13 13 12 12 12 13 13 13 13 13 13 13 13 12 12 12 12 12 12 13 13
23 21 20 20 19 18 17 16 14 13 12 13 13 13 12 11 10 10 10 10 10 10 11 11 12 13 14 14 14 14 13 13 13 13 13 14 14 15 14 13 14 14 14 13 13 13 13 14 14
24 23 23 21 20 18 18 17 14 15 14 14 14 14 13 12 12 11 10 11 11 11 11 12 13 13 13 14 14 14 14 14 14 14 15 15 15 16 15 15 15 14 14 14 13 13 14 14 14
25 24 23 24 24 21 20 19 16 16 16 15 15 16 15 13 13 13 12 12 12 12 13 13 13 14 14 14 15 15 14 14 14 14 15 16 16 17 17 16 16 16 15 14 14 14 14 15 15

GEFSSGP_500_meanwind_228.txt.gz
Wind_Speed
19 19 19 20 20 19 17 18 16 14 13 13 13 12 11 10 9 9 9 9 10 10 10 10 9 8 8 8 8 8 7 7 7 7 7 8 10 10 11 11 12 13 13 13 14 14 13 13 12
19 20 20 21 22 20 20 19 16 14 14 14 13 12 11 10 9 9 9 10 10 11 11 11 10 10 9 9 9 9 8 8 7 7 7 9 10 10 11 12 12 13 12 12 13 13 13 12 12
19 20 21 24 23 21 20 20 18 16 15 14 13 12 11 10 10 10 11 11 11 11 11 11 10 10 9 9 9 9 9 8 8 8 8 8 9 10 11 11 12 12 12 12 12 12 12 12 11
19 20 22 24 23 23 22 21 20 18 16 15 15 13 11 11 11 10 11 11 11 11 11 10 10 10 9 9 9 8 8 8 8 8 8 9 9 10 10 10 11 11 11 11 12 12 12 11 10
19 21 23 23 23 23 22 21 20 18 16 16 16 14 12 12 12 11 11 11 11 11 10 11 11 10 10 9 9 9 9 9 9 9 9 9 10 10 10 10 10 11 11 11 11 11 10 10 9
18 20 22 22 23 22 22 21 20 19 18 17 17 15 13 13 13 12 12 12 11 11 11 11 11 11 10 10 10 10 10 10 10 10 10 10 10 10 10 10 10 10 10 10 10 10 10 9 9
17 19 20 21 22 21 21 21 20 19 19 18 17 16 14 14 14 13 12 12 12 12 11 11 11 11 11 10 10 10 10 10 10 10 10 9 10 10 10 10 10 10 9 9 10 10 9 9 8
16 18 19 20 21 21 21 20 20 19 19 17 17 17 16 15 14 13 12 11 12 12 12 11 11 11 11 10 10 9 9 10 10 10 10 10 10 10 10 10 10 9 9 9 9 8 8 8 8
15 16 17 19 20 20 20 20 20 20 19 18 18 17 17 16 15 14 13 12 12 12 11 11 10 10 10 10 9 9 9 9 9 9 10 10 9 10 10 9 9 9 9 9 8 8 8 8 7
14 14 16 17 18 19 20 20 21 21 20 19 18 18 17 16 16 16 14 13 12 12 11 10 10 10 10 9 9 8 8 8 8 9 9 8 9 9 9 8 8 8 8 8 7 7 7 7 7
11 12 15 16 17 18 19 20 20 20 20 19 19 18 17 17 16 16 15 14 13 12 11 11 10 10 9 9 8 8 8 8 7 7 8 8 8 8 8 7 6 7 6 6 6 6 5 6 5
10 13 14 15 17 18 19 18 19 20 20 19 19 18 18 17 16 16 16 15 14 13 12 11 10 10 9 9 8 8 8 8 7 7 7 8 8 7 6 6 6 6 5 5 5 4 4 4 4
10 12 14 15 16 18 18 18 18 19 19 20 19 18 18 17 17 17 16 15 14 13 12 11 11 10 9 9 8 8 8 8 7 7 6 6 6 6 5 5 5 5 4 4 3 3 2 2 2
8 10 11 13 15 17 17 17 17 18 19 19 19 19 18 18 18 17 17 16 15 14 13 12 11 10 10 9 9 8 7 7 7 6 6 5 5 4 4 4 4 4 3 3 2 2 1 1 0
6 7 8 10 13 15 15 16 16 17 18 18 19 19 18 17 17 17 18 17 16 15 14 13 12 11 11 10 9 8 8 7 7 6 5 4 3 3 3 2 2 2 2 2 2 2 1 1 1
5 6 6 8 11 13 14 14 15 16 17 17 17 17 17 16 17 17 17 17 16 15 14 13 13 12 11 11 9 8 7 7 6 5 4 3 2 2 2 2 1 1 1 1 2 2 2 2 2
6 5 5 7 9 11 12 12 13 14 15 16 16 16 16 16 16 16 16 17 16 16 15 14 13 12 11 11 10 9 8 7 6 5 3 3 2 1 1 0 0 1 1 2 2 3 3 3 4
4 4 4 6 7 8 9 10 11 12 13 14 14 15 15 16 16 15 15 15 16 16 16 15 14 13 11 11 10 9 8 7 6 5 4 3 3 2 1 1 2 2 2 3 3 4 4 5 5
4 2 1 3 5 7 7 8 9 10 11 12 13 14 14 15 15 15 15 15 15 15 15 15 14 14 12 11 10 9 8 7 7 6 5 4 4 3 3 2 3 3 4 4 4 5 5 6 6
7 4 4 4 5 6 8 8 6 7 8 10 11 12 13 13 14 14 14 14 14 15 14 14 14 14 13 12 11 10 9 8 7 6 6 5 5 4 4 4 4 4 5 5 5 6 6 7 7
9 8 7 7 7 8 9 8 7 6 6 7 9 10 11 12 12 12 12 13 13 14 14 14 14 14 14 13 12 11 9 8 8 7 7 6 5 5 4 4 5 5 6 6 7 7 7 7 8
12 11 11 10 10 9 10 9 8 6 5 5 6 7 8 10 11 11 11 12 12 12 13 13 14 13 13 13 12 11 10 9 8 8 7 7 7 6 6 5 5 6 7 7 8 9 9 9 9
14 13 14 13 12 11 11 10 9 7 6 4 4 5 6 7 8 9 10 10 10 11 12 13 13 14 14 13 12 11 10 10 9 8 8 7 7 7 7 7 6 6 7 8 8 9 9 9 10
17 17 16 15 13 13 12 11 10 9 7 6 4 4 4 4 5 6 8 8 9 10 11 12 12 13 14 13 13 12 11 10 10 9 9 8 8 8 8 8 8 8 8 8 9 9 9 10 10
19 19 18 17 15 13 12 12 10 9 9 8 5 4 4 4 4 5 6 7 7 8 9 10 11 12 13 13 13 12 11 10 10 10 10 9 9 9 10 9 9 9 9 9 9 10 11 11 11
21 21 21 19 17 15 15 15 11 10 10 9 7 6 5 3 2 3 4 5 6 7 8 9 10 11 12 12 12 12 11 10 10 10 10 10 10 10 10 11 10 10 10 10 10 11 11 11 11
23 22 20 19 18 18 18 15 12 11 11 9 8 7 4 3 2 2 3 4 4 6 6 7 9 10 11 12 12 12 11 10 10 10 11 11 11 11 12 12 12 12 11 11 10 10 11 11 11
23 21 22 22 21 21 20 17 13 11 11 10 8 8 6 5 4 3 3 4 5 6 5 7 8 9 10 11 12 12 12 12 11 11 11 12 13 13 13 13 13 12 12 11 11 11 11 12 12
25 25 24 23 22 21 21 19 15 14 11 11 10 9 10 8 7 5 5 5 5 6 5 6 7 8 9 10 10 11 12 12 12 12 12 13 13 13 14 14 13 13 13 12 12 12 12 12 12
26 26 26 26 25 23 22 21 17 15 13 12 12 11 11 11 10 8 6 7 7 6 6 6 7 8 9 10 10 10 11 12 12 13 13 13 13 13 14 14 14 14 14 14 13 13 13 13 13

GEFSSGP_500_meanwind_234.txt.gz
Wind_Speed
21 20 20 19 18 16 15 15 16 15 14 13 12 12 11 11 10 9 8 8 7 7 7 8 8 9 9 9 10 10 10 10 10 11 11 11 13 13 13 13 13 13 13 12 12 12 12 12 11
22 22 21 20 19 18 17 17 18 16 14 13 13 12 11 11 9 8 8 7 7 7 8 8 9 10 10 10 10 10 10 10 11 12 11 11 12 13 13 13 13 13 12 12 12 12 12 11 11
22 21 21 21 20 19 18 18 18 17 15 14 14 13 12 11 10 9 8 8 7 7 8 9 10 10 10 10 10 10 10 10 11 11 11 11 11 12 13 13 13 13 12 12 11 11 11 11 10
21 22 21 21 20 20 19 19 19 17 16 15 14 14 12 12 10 9 8 8 8 8 9 10 11 11 11 11 10 10 10 10 10 11 11 10 11 12 12 13 13 13 12 12 11 11 10 10 10
20 21 22 21 21 21 20 20 19 19 17 16 15 14 13 12 11 10 9 9 9 9 10 11 11 11 11 11 10 10 10 11 11 11 11 11 11 12 12 12 12 12 11 11 10 10 10 9 9
20 20 21 21 21 21 21 21 21 19 18 16 15 15 14 12 11 11 10 10 9 10 11 11 11 11 10 11 11 11 11 11 11 11 12 12 11 11 11 11 12 11 11 10 10 9 9 9 8
20 20 21 20 21 21 21 21 21 19 17 16 15 15 14 14 12 11 11 11 10 10 11 11 11 12 11 11 11 10 10 11 11 11 11 11 11 10 10 11 10 10 10 9 9 9 8 7 7
18 19 20 20 21 21 22 21 20 19 18 16 15 15 14 14 12 12 11 11 11 11 12 12 12 11 11 11 10 10 10 10 11 11 11 10 11 10 10 10 9 8 8 8 8 8 7 7 6
17 18 19 20 21 21 21 21 20 19 18 17 16 15 14 13 12 12 11 11 12 12 12 12 11 11 12 11 11 11 11 10 10 11 10 10 10 10 10 9 8 8 7 7 7 7 6 6 5
16 17 18 19 21 21 21 21 20 19 18 17 16 16 15 14 13 12 12 11 12 12 12 11 11 11 11 11 11 11 11 11 10 10 9 9 10 10 10 9 8 7 6 6 6 6 5 5 5
14 16 17 18 19 20 20 21 20 19 18 17 17 16 15 14 14 13 13 12 12 12 11 11 10 10 10 11 11 11 10 10 10 9 9 9 9 9 9 8 7 6 5 5 4 4 3 3 3
12 14 15 17 18 19 20 20 20 19 19 18 17 17 17 15 15 14 13 13 13 12 11 11 10 10 10 10 10 10 9 9 9 8 9 8 8 8 7 6 6 5 5 4 3 2 2 1 1
11 13 14 16 18 19 19 19 19 19 19 19 18 18 18 16 15 15 15 14 13 12 11 11 10 10 9 9 9 9 9 8 8 8 8 7 7 7 5 5 4 4 3 2 2 1 1 1 0
10 12 13 14 16 17 17 17 17 18 18 18 18 18 18 17 16 15 15 14 13 13 12 11 10 10 9 9 9 9 9 8 7 7 6 5 5 4 4 3 2 2 2 2 1 1 1 2 2
9 10 11 12 15 16 16 16 16 16 16 17 17 17 17 16 16 16 15 15 14 14 13 12 11 10 10 9 9 9 9 8 7 6 5 4 3 3 2 2 1 1 1 1 2 2 2 3 3
7 8 9 11 12 13 14 15 14 15 14 14 15 15 16 16 16 16 15 15 15 14 14 13 13 12 11 10 10 10 9 9 8 6 5 4 3 2 2 1 0 1 1 1 2 3 3 4 4
5 6 7 8 9 11 12 13 13 13 13 13 14 14 14 14 14 15 15 14 14 14 14 13 13 13 12 11 10 10 9 9 8 6 5 4 3 2 2 1 1 1 1 1 2 3 4 4 5
4 4 4 5 6 8 9 10 10 11 12 11 12 12 13 13 14 13 14 14 14 14 14 14 13 12 12 10 10 9 9 8 8 7 6 5 5 4 2 1 1 2 2 2 4 4 4 5 5
6 4 3 2 3 4 6 7 7 8 9 10 11 11 11 12 12 12 13 13 13 13 13 14 13 13 12 11 10 9 9 8 7 7 7 6 5 4 4 3 3 3 3 3 3 4 5 6 6
9 7 5 2 1 2 3 5 5 6 7 7 8 9 10 10 11 11 11 12 12 12 13 14 13 12 12 11 10 10 9 8 8 7 7 6 6 5 5 4 4 4 4 4 4 5 6 7 7
12 9 8 6 5 4 3 2 3 4 5 5 6 7 7 8 9 9 10 11 11 11 12 12 13 12 12 12 11 10 10 9 8 8 7 7 6 6 6 5 5 5 5 5 5 6 7 8 8
13 12 10 9 8 7 5 3 2 2 3 4 6 6 5 5 6 7 8 9 9 10 11 11 11 11 11 11 11 10 10 9 8 8 7 7 6 6 7 7 6 6 6 6 6 7 8 8 9
16 14 13 13 11 10 8 7 4 3 2 3 5 6 5 4 3 4 5 7 7 8 9 9 10 10 10 10 10 10 9 9 8 8 8 7 7 7 7 8 8 7 7 7 7 7 8 9 10
19 17 16 15 14 12 10 9 6 5 3 3 4 5 5 4 2 2 3 5 5 6 7 7 8 8 9 9 9 9 9 8 8 8 8 7 7 8 8 8 8 8 8 8 8 8 9 10 10
22 20 19 18 17 15 13 12 8 6 6 5 5 5 5 5 3 2 2 2 3 4 5 6 7 7 7 8 9 8 8 8 8 8 8 8 8 8 8 9 9 10 10 10 9 9 10 11 12
24 23 21 20 18 17 16 15 11 9 8 8 7 7 6 6 5 3 2 1 2 2 3 4 5 5 6 7 8 8 7 7 7 8 9 9 9 9 9 9 10 10 11 11 11 11 12 12 13
27 24 22 21 21 20 20 18 15 12 10 9 8 8 7 6 6 6 5 4 3 3 3 3 3 4 5 6 7 8 8 7 8 8 10 10 11 11 11 11 10 11 12 12 12 13 13 14 14
29 26 24 23 23 23 22 20 17 15 12 11 10 9 8 7 8 8 7 6 5 4 5 4 4 5 5 6 7 8 8 9 9 9 10 11 11 12 12 12 11 11 12 12 13 13 14 15 15
30 29 28 27 26 25 24 21 18 16 15 13 12 11 10 10 10 9 9 8 7 6 6 6 7 7 7 7 7 8 9 9 10 11 11 12 12 13 13 13 13 13 13 14 14 14 15 15 16
33 32 30 29 28 26 25 23 20 18 16 15 13 13 12 11 10 10 11 10 10 10 8 8 9 10 10 9 9 9 10 11 11 12 13 13 14 14 14 13 13 13 14 14 14 15 15 16 16

GEFSSGP_500_meanwind_240.txt.gz
Wind_Speed
18 17 16 15 17 15 12 12 11 11 11 11 10 10 9 9 9 9 8 8 8 7 8 8 8 8 9 9 10 10 11 12 12 13 14 15 15 15 15 15 15 15 15 14 14 14 14 13 12
19 18 16 18 17 14 13 13 12 12 11 11 11 10 10 9 9 9 8 8 9 8 8 8 8 8 9 9 11 11 12 12 12 13 14 15 15 15 15 15 15 15 15 15 14 14 13 13 12
19 19 19 19 16 14 14 13 13 13 12 12 12 11 10 10 10 9 8 8 8 8 8 8 8 9 9 10 11 11 12 12 12 13 14 14 14 15 15 15 15 15 15 15 14 14 13 12 12
18 20 20 18 17 16 15 15 14 14 13 13 13 12 11 10 10 9 9 8 8 8 8 9 9 9 9 10 11 11 12 12 12 13 13 14 14 14 14 15 14 14 14 14 13 13 12 11 11
18 21 19 17 17 17 16 16 15 15 14 14 14 13 12 11 11 10 9 9 8 8 8 9 9 10 10 10 10 11 11 11 11 12 13 13 14 14 15 15 13 14 13 13 13 12 11 11 10
19 19 16 16 17 17 16 16 16 16 16 15 15 14 13 12 11 11 10 9 9 9 9 9 9 10 10 10 10 10 11 11 11 12 13 13 14 14 15 13 13 13 12 12 11 11 11 10 9
19 17 16 17 17 17 17 16 16 17 16 16 15 14 14 13 12 12 11 10 10 10 10 10 10 10 10 9 10 11 11 11 11 12 12 13 13 14 14 13 12 12 11 11 11 10 10 9 8
18 17 16 17 17 17 17 16 17 17 16 16 15 15 14 13 12 12 12 12 12 11 11 10 10 10 10 10 10 10 11 11 11 11 12 12 13 13 13 12 11 11 9 9 9 9 8 7 7
17 16 15 15 16 17 17 17 17 17 17 16 16 16 15 14 13 12 12 12 12 11 11 10 10 10 10 10 11 10 10 11 11 11 11 12 12 12 12 11 11 10 9 8 8 7 7 6 6
15 14 14 15 16 17 18 18 17 17 17 17 16 16 15 14 13 13 12 12 11 11 11 11 10 10 10 10 11 11 11 11 11 11 11 11 11 11 10 10 9 9 8 8 7 6 5 5 5
13 13 14 15 16 17 18 18 18 18 17 17 16 15 15 14 14 13 12 11 11 11 10 10 10 10 10 11 11 11 11 11 11 11 10 10 10 9 9 9 8 8 7 7 6 5 5 4 3
11 12 12 14 15 17 18 18 18 18 17 17 16 15 15 14 13 13 12 11 11 10 10 10 10 10 10 10 11 11 10 10 10 10 9 8 9 9 8 7 7 6 6 5 4 4 3 2 2
9 10 11 12 15 16 16 17 17 17 17 17 16 16 15 13 13 12 12 11 10 10 10 10 10 10 10 10 11 11 11 10 10 9 9 8 8 7 7 6 5 4 4 4 3 3 2 2 1
8 8 9 11 13 14 15 16 16 16 16 16 16 16 15 14 13 12 11 11 11 10 10 10 10 10 10 10 11 12 11 10 9 9 8 8 8 7 5 4 4 4 3 3 3 2 2 2 2
7 8 8 9 11 12 13 15 15 15 15 15 15 15 15 14 13 13 12 11 10 10 9 10 10 10 10 10 10 10 10 10 8 8 7 7 6 5 4 4 4 3 3 2 2 2 2 2 2
5 6 7 7 8 10 12 14 13 13 14 14 14 14 14 14 13 13 12 12 11 11 10 10 10 10 10 10 9 9 9 9 8 7 6 6 5 4 4 3 2 2 3 2 2 2 3 3 3
3 4 4 5 6 8 10 11 11 12 12 13 13 13 13 12 12 12 12 11 11 11 11 11 10 10 10 10 9 9 8 8 8 7 6 5 4 4 4 3 2 1 2 2 3 3 4 5 5
4 3 2 3 4 6 7 8 9 10 11 11 12 11 11 11 11 11 11 11 11 10 10 10 10 10 10 9 9 9 9 8 7 6 6 5 4 4 4 3 2 1 1 2 3 3 4 5 5
7 5 3 2 2 3 5 6 6 7 9 9 10 10 10 10 10 10 10 11 10 10 9 9 9 9 9 8 8 8 8 8 7 6 6 4 3 3 3 2 2 1 2 2 3 4 4 5 6
9 6 4 3 2 1 2 3 4 4 6 7 8 8 8 8 8 9 9 9 9 9 9 9 9 8 8 8 7 7 7 7 7 6 5 4 3 3 2 2 2 2 2 2 3 3 5 6 7
11 9 7 5 3 2 1 2 2 2 3 5 5 6 6 7 6 6 7 8 8 8 8 8 8 8 8 7 7 7 6 6 6 5 5 5 3 3 2 1 2 3 3 3 4 5 6 7 7
13 12 11 8 5 5 3 3 4 3 2 3 3 4 4 5 4 4 4 5 6 6 6 7 7 7 7 7 7 7 7 7 6 6 6 5 5 4 4 3 3 3 4 5 5 6 7 7 8
16 15 13 11 9 7 7 4 5 5 3 3 2 3 3 3 3 3 3 3 4 4 5 5 6 6 7 7 7 6 7 6 6 7 6 6 6 5 5 5 5 5 5 6 6 7 8 8 9
18 17 15 12 10 10 9 7 7 7 5 4 3 3 3 3 3 3 3 2 2 3 3 4 5 5 6 7 7 6 6 6 6 7 7 7 7 6 6 7 7 7 7 7 7 8 9 9 10
21 18 15 13 13 13 12 10 9 8 7 6 5 5 5 4 3 3 3 3 2 2 2 3 4 5 5 6 6 7 6 6 6 7 7 7 7 7 7 8 8 8 8 8 8 9 10 11 11
23 21 19 16 14 14 15 13 10 9 8 7 7 7 6 5 4 4 3 3 3 3 3 3 3 4 5 5 6 7 7 7 7 7 7 7 8 8 8 8 8 9 9 9 9 10 11 12 12
26 25 21 18 17 15 16 15 12 10 9 9 9 8 8 7 6 6 5 4 4 4 4 5 5 5 5 6 6 7 8 8 8 8 8 8 8 8 9 9 9 9 10 10 11 11 12 12 13
28 25 24 21 19 18 17 16 13 12 11 11 11 10 9 9 8 7 7 6 6 6 6 7 7 7 6 6 7 8 8 9 9 8 8 9 9 10 10 10 11 11 12 13 13 13 13 13 14
29 28 26 24 22 20 18 17 16 14 12 11 11 11 11 10 9 9 8 8 8 8 8 8 8 8 7 7 8 8 9 10 10 11 10 10 11 11 11 12 13 13 13 14 14 15 15 15 15
30 29 28 26 25 23 20 19 19 16 14 13 12 12 12 11 11 10 10 10 10 10 10 10 10 10 9 9 10 10 11 12 12 12 12 12 12 13 13 14 14 14 14 14 15 15 16 16 16